{"data":{"norad_id":66319,"intl_designator":"2025-253A","name":"STARLINK-35442","alt_names":[],"object_type":"PAYLOAD","status":"ACTIVE","operator":null,"country":"US","launch_date":"2025-11-06","launch_site_code":"AFETR","launch_vehicle":null,"mission":null,"orbit_class":"UNKNOWN","rcs_meters":null,"size_class":null,"mass_kg":null,"dimensions":null,"purposes":["comms"],"wikipedia_slug":null,"has_3d_model":false,"image_url":null,"decayed_at":null,"tle_current":{"epoch":"2026-09-20T04:02:02.551776Z","epoch_age_seconds":125398,"freshness":"FRESH","line1":"1 66319U 25253A   26263.16808509  .00016995  00000+0  62553-3 0  9991","line2":"2 66319  42.9984 194.5271 0001414 274.4440  85.6250 15.27587555 49983","mean_motion":15.27587555,"eccentricity":0.0001414,"inclination_deg":42.9984,"raan_deg":194.5271,"arg_perigee_deg":274.444,"mean_anomaly_deg":85.625,"bstar":0.00062553,"rev_number":4998,"period_min":94.266282497961,"perigee_km":482.0563052298,"apogee_km":483.99664226018,"semimajor_km":6861.163473745,"source":"CELESTRAK","updated_at":"2026-09-21T09:00:35.872732Z"}}}